Time,TemperatureF,DewpointF,PressureIn,WindDirection,WindDirectionDegrees,WindSpeedMPH,WindSpeedGustMPH,Humidity,HourlyPrecipIn,Conditions,Clouds,dailyrainin,SolarRadiationWatts/m^2,SoftwareType,DateUTC
2013-09-01 00:00:00,67.8,64.1,29.75,East,80,0.0,1.0,88,0.00,,---,0.00,0.00,VWS V14.01,2013-09-01 05:00:00,
2013-09-01 00:02:00,66.7,64.3,29.75,North,360,0.0,0.0,92,0.00,,---,0.00,0.00,VWS V14.01,2013-09-01 05:02:00,
2013-09-01 00:07:00,66.7,64.3,29.75,North,360,0.0,1.0,92,0.00,,---,0.00,0.00,VWS V14.01,2013-09-01 05:07:00,
2013-09-01 00:12:00,66.7,64.3,29.74,North,360,1.0,1.0,92,0.00,,---,0.00,0.00,VWS V14.01,2013-09-01 05:12:00,
2013-09-01 00:17:00,66.7,64.3,29.74,North,360,0.0,1.0,92,0.00,,---,0.00,0.00,VWS V14.01,2013-09-01 05:17:00,
2013-09-01 00:22:00,66.6,64.2,29.74,North,360,0.0,1.0,92,0.00,,---,0.00,0.00,VWS V14.01,2013-09-01 05:22:00,
2013-09-01 00:27:00,66.6,64.5,29.74,North,360,0.0,1.0,93,0.00,,---,0.00,0.00,VWS V14.01,2013-09-01 05:27:00,
2013-09-01 00:32:00,66.6,64.5,29.74,North,360,0.0,1.0,93,0.00,,---,0.00,0.00,VWS V14.01,2013-09-01 05:32:00,
2013-09-01 00:37:00,66.8,64.7,29.74,North,360,0.0,1.0,93,0.00,,---,0.00,0.00,VWS V14.01,2013-09-01 05:37:00,
2013-09-01 00:42:00,66.8,64.7,29.74,North,360,0.0,1.0,93,0.00,,---,0.00,0.00,VWS V14.01,2013-09-01 05:42:00,
2013-09-01 00:47:00,66.7,64.6,29.73,North,360,0.0,1.0,93,0.00,,---,0.00,0.00,VWS V14.01,2013-09-01 05:47:00,
2013-09-01 00:52:00,66.7,64.6,29.73,North,360,0.0,1.0,93,0.00,,---,0.00,0.00,VWS V14.01,2013-09-01 05:52:00,
2013-09-01 00:57:00,66.7,64.6,29.73,North,360,0.0,1.0,93,0.00,,---,0.00,0.00,VWS V14.01,2013-09-01 05:57:00,
2013-09-01 01:00:00,66.7,64.6,29.72,North,360,0.0,1.0,93,0.00,,---,0.00,0.00,VWS V14.01,2013-09-01 06:00:00,
2013-09-01 01:02:00,66.6,64.5,29.72,North,360,0.0,0.0,93,0.00,,---,0.00,0.00,VWS V14.01,2013-09-01 06:02:00,
2013-09-01 01:07:00,66.7,64.9,29.71,North,360,1.0,1.0,94,0.00,,---,0.00,0.00,VWS V14.01,2013-09-01 06:07:00,
2013-09-01 01:12:00,67.1,65.3,29.69,SE,136,2.0,4.0,94,0.00,,---,0.00,0.00,VWS V14.01,2013-09-01 06:12:00,
2013-09-01 01:17:00,67.5,66.0,29.68,SE,136,1.0,4.0,95,0.00,,---,0.00,0.00,VWS V14.01,2013-09-01 06:17:00,
2013-09-01 01:22:00,67.7,66.2,29.68,SE,136,1.0,4.0,95,0.00,,---,0.00,0.00,VWS V14.01,2013-09-01 06:22:00,
2013-09-01 01:27:00,67.9,66.4,29.68,SE,136,0.0,4.0,95,0.00,,---,0.00,0.00,VWS V14.01,2013-09-01 06:27:00,
2013-09-01 01:32:00,67.9,66.4,29.68,ESE,103,1.0,4.0,95,0.00,,---,0.00,0.00,VWS V14.01,2013-09-01 06:32:00,
2013-09-01 01:37:00,68.0,66.5,29.68,ESE,108,1.0,4.0,95,0.00,,---,0.00,0.00,VWS V14.01,2013-09-01 06:37:00,
2013-09-01 01:42:00,68.1,66.6,29.68,ESE,108,0.0,4.0,95,0.00,,---,0.00,0.00,VWS V14.01,2013-09-01 06:42:00,
2013-09-01 01:47:00,68.2,66.7,29.69,ESE,108,1.0,4.0,95,0.00,,---,0.00,0.00,VWS V14.01,2013-09-01 06:47:00,
2013-09-01 01:52:00,68.2,66.7,29.69,ESE,108,0.0,4.0,95,0.00,,---,0.00,0.00,VWS V14.01,2013-09-01 06:52:00,
2013-09-01 01:57:00,68.2,66.7,29.69,ESE,108,0.0,4.0,95,0.00,,---,0.00,0.00,VWS V14.01,2013-09-01 06:57:00,
2013-09-01 02:00:00,68.3,66.8,29.69,ESE,108,0.0,4.0,95,0.00,,---,0.00,0.00,VWS V14.01,2013-09-01 07:00:00,
2013-09-01 02:02:00,68.3,66.5,29.69,ESE,108,0.0,1.0,94,0.00,,---,0.00,0.00,VWS V14.01,2013-09-01 07:02:00,
2013-09-01 02:07:00,68.3,66.5,29.71,ESE,108,0.0,2.0,94,0.00,,---,0.00,0.00,VWS V14.01,2013-09-01 07:07:00,
2013-09-01 02:12:00,68.3,66.5,29.72,ESE,108,0.0,2.0,94,0.00,,---,0.00,0.00,VWS V14.01,2013-09-01 07:12:00,
2013-09-01 02:17:00,68.3,66.5,29.72,ESE,108,1.0,2.0,94,0.00,,---,0.00,0.00,VWS V14.01,2013-09-01 07:17:00,
2013-09-01 02:22:00,68.3,66.5,29.71,ESE,108,0.0,2.0,94,0.00,,---,0.00,0.00,VWS V14.01,2013-09-01 07:22:00,
2013-09-01 02:27:00,68.4,66.6,29.72,ESE,108,1.0,2.0,94,0.00,,---,0.00,0.00,VWS V14.01,2013-09-01 07:27:00,
2013-09-01 02:32:00,68.3,66.5,29.72,North,350,1.0,3.0,94,0.00,,---,0.00,0.00,VWS V14.01,2013-09-01 07:32:00,
2013-09-01 02:37:00,68.3,66.5,29.72,North,350,0.0,3.0,94,0.00,,---,0.00,0.00,VWS V14.01,2013-09-01 07:37:00,
2013-09-01 02:42:00,68.3,66.5,29.72,North,350,0.0,3.0,94,0.00,,---,0.00,0.00,VWS V14.01,2013-09-01 07:42:00,
2013-09-01 02:47:00,68.4,66.6,29.71,North,350,0.0,3.0,94,0.00,,---,0.00,0.00,VWS V14.01,2013-09-01 07:47:00,
2013-09-01 02:52:00,68.4,66.6,29.71,NNW,342,0.0,3.0,94,0.00,,---,0.00,0.00,VWS V14.01,2013-09-01 07:52:00,
2013-09-01 02:57:00,68.3,66.5,29.72,NNW,342,0.0,3.0,94,0.00,,---,0.00,0.00,VWS V14.01,2013-09-01 07:57:00,
2013-09-01 03:00:00,68.4,66.6,29.72,NNW,342,1.0,3.0,94,0.00,,---,0.00,0.00,VWS V14.01,2013-09-01 08:00:00,
2013-09-01 03:02:00,68.4,66.6,29.72,NNW,342,0.0,1.0,94,0.00,,---,0.00,0.00,VWS V14.01,2013-09-01 08:02:00,
2013-09-01 03:07:00,68.4,66.6,29.72,NNW,342,0.0,1.0,94,0.00,,---,0.00,0.00,VWS V14.01,2013-09-01 08:07:00,
2013-09-01 03:12:00,68.4,66.6,29.72,NNW,342,0.0,1.0,94,0.00,,---,0.00,0.00,VWS V14.01,2013-09-01 08:12:00,
2013-09-01 03:17:00,68.4,66.3,29.72,NNW,342,0.0,1.0,93,0.00,,---,0.00,0.00,VWS V14.01,2013-09-01 08:17:00,
2013-09-01 03:22:00,68.3,66.2,29.72,NNW,342,0.0,1.0,93,0.00,,---,0.00,0.00,VWS V14.01,2013-09-01 08:22:00,
2013-09-01 03:27:00,68.3,66.2,29.72,NNW,342,0.0,1.0,93,0.00,,---,0.00,0.00,VWS V14.01,2013-09-01 08:27:00,
2013-09-01 03:32:00,68.3,66.2,29.72,NNW,342,0.0,1.0,93,0.00,,---,0.00,0.00,VWS V14.01,2013-09-01 08:32:00,
2013-09-01 03:37:00,68.2,66.1,29.71,NNW,342,0.0,1.0,93,0.00,,---,0.00,0.00,VWS V14.01,2013-09-01 08:37:00,
2013-09-01 03:42:00,68.1,66.0,29.72,NNW,342,0.0,1.0,93,0.00,,---,0.00,0.00,VWS V14.01,2013-09-01 08:42:00,
2013-09-01 03:47:00,68.0,65.9,29.71,NNW,342,0.0,1.0,93,0.00,,---,0.00,0.00,VWS V14.01,2013-09-01 08:47:00,
2013-09-01 03:52:00,67.8,65.7,29.71,NNW,342,0.0,1.0,93,0.00,,---,0.00,0.00,VWS V14.01,2013-09-01 08:52:00,
2013-09-01 03:57:00,67.7,65.6,29.71,NNW,342,0.0,1.0,93,0.00,,---,0.00,0.00,VWS V14.01,2013-09-01 08:57:00,
2013-09-01 04:00:00,67.7,65.6,29.70,NNW,342,0.0,1.0,93,0.00,,---,0.00,0.00,VWS V14.01,2013-09-01 09:00:00,
2013-09-01 04:02:00,67.7,65.6,29.70,NNW,342,0.0,0.0,93,0.00,,---,0.00,0.00,VWS V14.01,2013-09-01 09:02:00,
2013-09-01 04:07:00,67.6,65.5,29.70,NNW,342,0.0,0.0,93,0.00,,---,0.00,0.00,VWS V14.01,2013-09-01 09:07:00,
2013-09-01 04:12:00,67.5,65.4,29.70,NNW,342,0.0,0.0,93,0.00,,---,0.00,0.00,VWS V14.01,2013-09-01 09:12:00,
2013-09-01 04:17:00,67.4,65.3,29.70,NNW,342,0.0,0.0,93,0.00,,---,0.00,0.00,VWS V14.01,2013-09-01 09:17:00,
2013-09-01 04:22:00,67.4,65.6,29.70,NNW,342,0.0,1.0,94,0.00,,---,0.00,0.00,VWS V14.01,2013-09-01 09:22:00,
2013-09-01 04:27:00,67.3,65.5,29.70,NNW,342,0.0,1.0,94,0.00,,---,0.00,0.00,VWS V14.01,2013-09-01 09:27:00,
2013-09-01 04:32:00,67.2,65.1,29.70,NNW,342,0.0,1.0,93,0.00,,---,0.00,0.00,VWS V14.01,2013-09-01 09:32:00,
2013-09-01 04:37:00,67.1,65.0,29.71,NNW,342,0.0,1.0,93,0.00,,---,0.00,0.00,VWS V14.01,2013-09-01 09:37:00,
2013-09-01 04:42:00,67.0,64.9,29.71,NNW,342,0.0,1.0,93,0.00,,---,0.00,0.00,VWS V14.01,2013-09-01 09:42:00,
2013-09-01 04:47:00,66.7,64.9,29.71,NNW,342,0.0,1.0,94,0.00,,---,0.00,0.00,VWS V14.01,2013-09-01 09:47:00,
2013-09-01 04:52:00,66.7,64.9,29.69,NNW,342,0.0,1.0,94,0.00,,---,0.00,0.00,VWS V14.01,2013-09-01 09:52:00,
2013-09-01 04:57:00,66.8,65.0,29.70,NW,312,2.0,2.0,94,0.00,,---,0.00,0.00,VWS V14.01,2013-09-01 09:57:00,
2013-09-01 05:00:00,66.8,65.3,29.70,NW,312,1.0,2.0,95,0.00,,---,0.00,0.00,VWS V14.01,2013-09-01 10:00:00,
2013-09-01 05:02:00,66.9,65.4,29.70,NW,312,2.0,2.0,95,0.00,,---,0.00,0.00,VWS V14.01,2013-09-01 10:02:00,
2013-09-01 05:07:00,66.8,65.3,29.70,West,265,1.0,3.0,95,0.00,,---,0.00,0.00,VWS V14.01,2013-09-01 10:07:00,
2013-09-01 05:12:00,66.7,65.2,29.69,West,263,0.0,3.0,95,0.00,,---,0.00,0.00,VWS V14.01,2013-09-01 10:12:00,
2013-09-01 05:17:00,66.8,65.3,29.69,WSW,246,1.0,3.0,95,0.00,,---,0.00,0.00,VWS V14.01,2013-09-01 10:17:00,
2013-09-01 05:22:00,66.9,65.4,29.69,WSW,242,1.0,3.0,95,0.00,,---,0.00,0.00,VWS V14.01,2013-09-01 10:22:00,
2013-09-01 05:27:00,67.1,65.6,29.69,SW,234,2.0,3.0,95,0.00,,---,0.00,0.00,VWS V14.01,2013-09-01 10:27:00,
2013-09-01 05:32:00,67.2,65.7,29.70,SW,215,3.0,3.0,95,0.00,,---,0.00,0.00,VWS V14.01,2013-09-01 10:32:00,
2013-09-01 05:37:00,67.3,65.8,29.70,SW,227,2.0,3.0,95,0.00,,---,0.00,0.00,VWS V14.01,2013-09-01 10:37:00,
2013-09-01 05:42:00,67.3,65.8,29.70,SW,227,2.0,3.0,95,0.00,,---,0.00,0.00,VWS V14.01,2013-09-01 10:42:00,
2013-09-01 05:47:00,67.3,65.8,29.70,SW,227,2.0,3.0,95,0.00,,---,0.00,0.00,VWS V14.01,2013-09-01 10:47:00,
2013-09-01 05:52:00,67.4,65.9,29.70,SW,227,2.0,3.0,95,0.00,,---,0.00,0.00,VWS V14.01,2013-09-01 10:52:00,
2013-09-01 05:57:00,67.4,65.9,29.71,SW,227,2.0,3.0,95,0.00,,---,0.00,0.00,VWS V14.01,2013-09-01 10:57:00,
2013-09-01 06:00:00,67.5,66.0,29.70,SW,227,0.0,3.0,95,0.00,,---,0.00,0.00,VWS V14.01,2013-09-01 11:00:00,
2013-09-01 06:02:00,67.5,66.0,29.71,SW,227,2.0,2.0,95,0.00,,---,0.00,0.00,VWS V14.01,2013-09-01 11:02:00,
2013-09-01 06:07:00,67.5,66.0,29.71,SW,227,2.0,3.0,95,0.00,,---,0.00,0.00,VWS V14.01,2013-09-01 11:07:00,
2013-09-01 06:12:00,67.5,66.0,29.70,SW,229,1.0,3.0,95,0.00,,---,0.00,0.00,VWS V14.01,2013-09-01 11:12:00,
2013-09-01 06:17:00,67.6,66.1,29.70,SW,229,1.0,3.0,95,0.00,,---,0.00,0.00,VWS V14.01,2013-09-01 11:17:00,
2013-09-01 06:22:00,67.5,66.0,29.70,SW,229,2.0,3.0,95,0.00,,---,0.00,0.00,VWS V14.01,2013-09-01 11:22:00,
2013-09-01 06:27:00,67.5,66.0,29.70,SW,229,2.0,3.0,95,0.00,,---,0.00,0.00,VWS V14.01,2013-09-01 11:27:00,
2013-09-01 06:32:00,67.5,66.0,29.71,SW,229,0.0,3.0,95,0.00,,---,0.00,5.00,VWS V14.01,2013-09-01 11:32:00,
2013-09-01 06:37:00,67.5,66.0,29.71,SW,229,0.0,3.0,95,0.00,,---,0.00,7.00,VWS V14.01,2013-09-01 11:37:00,
2013-09-01 06:42:00,67.5,66.0,29.71,SW,229,1.0,3.0,95,0.00,,---,0.00,9.00,VWS V14.01,2013-09-01 11:42:00,
2013-09-01 06:47:00,67.5,66.0,29.70,SW,229,0.0,3.0,95,0.00,,---,0.00,12.00,VWS V14.01,2013-09-01 11:47:00,
2013-09-01 06:52:00,67.5,66.0,29.70,SW,229,0.0,3.0,95,0.00,,---,0.00,12.00,VWS V14.01,2013-09-01 11:52:00,
2013-09-01 06:57:00,67.4,65.9,29.70,SW,229,0.0,3.0,95,0.00,,---,0.00,18.00,VWS V14.01,2013-09-01 11:57:00,
2013-09-01 07:00:00,67.4,65.9,29.70,SW,229,1.0,3.0,95,0.00,,---,0.00,19.00,VWS V14.01,2013-09-01 12:00:00,
2013-09-01 07:02:00,67.4,65.9,29.70,SW,229,1.0,2.0,95,0.00,,---,0.00,19.00,VWS V14.01,2013-09-01 12:02:00,
2013-09-01 07:07:00,67.4,65.9,29.70,SW,229,0.0,2.0,95,0.00,,---,0.00,30.00,VWS V14.01,2013-09-01 12:07:00,
2013-09-01 07:12:00,67.4,65.9,29.70,SW,229,0.0,2.0,95,0.00,,---,0.00,37.00,VWS V14.01,2013-09-01 12:12:00,
2013-09-01 07:17:00,67.5,66.0,29.70,SW,229,0.0,2.0,95,0.00,,---,0.00,58.00,VWS V14.01,2013-09-01 12:17:00,
2013-09-01 07:22:00,67.5,66.0,29.70,SW,229,1.0,2.0,95,0.00,,---,0.00,90.00,VWS V14.01,2013-09-01 12:22:00,
2013-09-01 07:27:00,67.6,66.1,29.70,SW,229,0.0,2.0,95,0.00,,---,0.00,62.00,VWS V14.01,2013-09-01 12:27:00,
2013-09-01 07:32:00,67.8,66.6,29.70,SW,229,0.0,2.0,96,0.00,,---,0.00,44.00,VWS V14.01,2013-09-01 12:32:00,
2013-09-01 07:37:00,68.0,66.5,29.70,SW,229,1.0,2.0,95,0.00,,---,0.00,26.00,VWS V14.01,2013-09-01 12:37:00,
2013-09-01 07:42:00,68.2,67.0,29.70,SW,229,1.0,2.0,96,0.00,,---,0.00,23.00,VWS V14.01,2013-09-01 12:42:00,
2013-09-01 07:47:00,68.4,67.2,29.70,SW,229,2.0,3.0,96,0.00,,---,0.00,67.00,VWS V14.01,2013-09-01 12:47:00,
2013-09-01 07:52:00,68.9,67.7,29.70,SSW,202,2.0,4.0,96,0.00,,---,0.00,86.00,VWS V14.01,2013-09-01 12:52:00,
2013-09-01 07:57:00,69.3,68.1,29.70,SW,232,2.0,4.0,96,0.00,,---,0.00,76.00,VWS V14.01,2013-09-01 12:57:00,
2013-09-01 08:00:00,69.3,68.1,29.70,SW,232,2.0,4.0,96,0.00,,---,0.00,97.00,VWS V14.01,2013-09-01 13:00:00,
2013-09-01 08:02:00,69.6,68.4,29.70,South,186,2.0,3.0,96,0.00,,---,0.00,142.00,VWS V14.01,2013-09-01 13:02:00,
2013-09-01 08:07:00,69.9,68.7,29.70,SSW,205,2.0,3.0,96,0.00,,---,0.00,141.00,VWS V14.01,2013-09-01 13:07:00,
2013-09-01 08:12:00,70.4,69.2,29.70,SSW,205,2.0,3.0,96,0.00,,---,0.00,142.00,VWS V14.01,2013-09-01 13:12:00,
2013-09-01 08:17:00,70.4,68.9,29.71,SSW,205,2.0,3.0,95,0.00,,---,0.00,88.00,VWS V14.01,2013-09-01 13:17:00,
2013-09-01 08:22:00,70.5,69.0,29.71,SSW,205,2.0,3.0,95,0.00,,---,0.00,105.00,VWS V14.01,2013-09-01 13:22:00,
2013-09-01 08:27:00,70.6,69.1,29.71,SW,220,3.0,3.0,95,0.00,,---,0.00,135.00,VWS V14.01,2013-09-01 13:27:00,
2013-09-01 08:32:00,70.7,69.2,29.71,SW,220,1.0,3.0,95,0.00,,---,0.00,125.00,VWS V14.01,2013-09-01 13:32:00,
2013-09-01 08:37:00,70.8,69.3,29.71,SW,229,2.0,3.0,95,0.00,,---,0.00,207.00,VWS V14.01,2013-09-01 13:37:00,
2013-09-01 08:42:00,71.0,69.5,29.71,SW,214,3.0,5.0,95,0.00,,---,0.00,134.00,VWS V14.01,2013-09-01 13:42:00,
2013-09-01 08:47:00,71.1,69.3,29.71,SSW,204,4.0,5.0,94,0.00,,---,0.00,149.00,VWS V14.01,2013-09-01 13:47:00,
2013-09-01 08:52:00,71.0,69.2,29.71,SSW,204,3.0,5.0,94,0.00,,---,0.00,95.00,VWS V14.01,2013-09-01 13:52:00,
2013-09-01 08:57:00,70.9,69.1,29.71,SW,218,2.0,5.0,94,0.00,,---,0.00,120.00,VWS V14.01,2013-09-01 13:57:00,
2013-09-01 09:00:00,71.0,69.2,29.71,SW,218,1.0,5.0,94,0.00,,---,0.00,141.00,VWS V14.01,2013-09-01 14:00:00,
2013-09-01 09:02:00,71.2,69.4,29.71,SW,230,3.0,3.0,94,0.00,,---,0.00,135.00,VWS V14.01,2013-09-01 14:02:00,
2013-09-01 09:07:00,71.2,69.4,29.71,SSW,209,3.0,5.0,94,0.00,,---,0.00,195.00,VWS V14.01,2013-09-01 14:07:00,
2013-09-01 09:12:00,71.4,69.6,29.72,WSW,241,2.0,5.0,94,0.00,,---,0.00,142.00,VWS V14.01,2013-09-01 14:12:00,
2013-09-01 09:17:00,71.7,69.9,29.72,SW,226,1.0,5.0,94,0.00,,---,0.00,72.00,VWS V14.01,2013-09-01 14:17:00,
2013-09-01 09:22:00,71.7,69.9,29.72,SW,225,1.0,5.0,94,0.00,,---,0.00,90.00,VWS V14.01,2013-09-01 14:22:00,
2013-09-01 09:27:00,71.7,69.6,29.71,SW,225,0.0,5.0,93,0.00,,---,0.00,105.00,VWS V14.01,2013-09-01 14:27:00,
2013-09-01 09:32:00,71.8,69.7,29.71,SW,225,1.0,5.0,93,0.00,,---,0.00,84.00,VWS V14.01,2013-09-01 14:32:00,
2013-09-01 09:37:00,72.0,69.9,29.71,SW,222,2.0,5.0,93,0.00,,---,0.00,114.00,VWS V14.01,2013-09-01 14:37:00,
2013-09-01 09:42:00,72.2,70.1,29.71,SW,222,1.0,5.0,93,0.00,,---,0.00,130.00,VWS V14.01,2013-09-01 14:42:00,
2013-09-01 09:47:00,72.5,70.1,29.71,SW,218,2.0,5.0,92,0.00,,---,0.00,130.00,VWS V14.01,2013-09-01 14:47:00,
2013-09-01 09:52:00,72.7,70.2,29.71,SW,224,3.0,5.0,92,0.00,,---,0.00,174.00,VWS V14.01,2013-09-01 14:52:00,
2013-09-01 09:57:00,72.8,70.3,29.71,SW,225,3.0,5.0,92,0.00,,---,0.00,250.00,VWS V14.01,2013-09-01 14:57:00,
2013-09-01 10:00:00,72.9,70.4,29.71,SW,221,2.0,5.0,92,0.00,,---,0.00,287.00,VWS V14.01,2013-09-01 15:00:00,
2013-09-01 10:02:00,73.3,70.8,29.71,SW,231,3.0,3.0,92,0.00,,---,0.00,420.00,VWS V14.01,2013-09-01 15:02:00,
2013-09-01 10:07:00,74.0,70.9,29.70,SW,224,2.0,3.0,90,0.00,,---,0.00,202.00,VWS V14.01,2013-09-01 15:07:00,
2013-09-01 10:12:00,74.2,71.1,29.71,SW,215,1.0,4.0,90,0.00,,---,0.00,155.00,VWS V14.01,2013-09-01 15:12:00,
2013-09-01 10:17:00,74.4,70.9,29.70,SW,225,1.0,4.0,89,0.00,,---,0.00,128.00,VWS V14.01,2013-09-01 15:17:00,
2013-09-01 10:22:00,74.6,71.2,29.70,SW,217,0.0,4.0,89,0.00,,---,0.00,144.00,VWS V14.01,2013-09-01 15:22:00,
2013-09-01 10:27:00,74.7,70.9,29.70,SW,235,2.0,5.0,88,0.00,,---,0.00,139.00,VWS V14.01,2013-09-01 15:27:00,
2013-09-01 10:32:00,74.6,70.8,29.70,SW,235,2.0,5.0,88,0.00,,---,0.00,51.00,VWS V14.01,2013-09-01 15:32:00,
2013-09-01 10:37:00,74.6,70.8,29.70,WSW,242,0.0,5.0,88,0.00,,---,0.00,116.00,VWS V14.01,2013-09-01 15:37:00,
2013-09-01 10:42:00,74.5,70.7,29.70,SW,228,3.0,5.0,88,0.00,,---,0.00,179.00,VWS V14.01,2013-09-01 15:42:00,
2013-09-01 10:47:00,74.5,71.1,29.70,SSW,205,3.0,5.0,89,0.00,,---,0.00,295.00,VWS V14.01,2013-09-01 15:47:00,
2013-09-01 10:52:00,74.7,70.9,29.69,SW,221,1.0,5.0,88,0.00,,---,0.00,694.00,VWS V14.01,2013-09-01 15:52:00,
2013-09-01 10:57:00,75.7,71.6,29.69,SSW,200,2.0,5.0,87,0.00,,---,0.00,613.00,VWS V14.01,2013-09-01 15:57:00,
2013-09-01 11:00:00,75.6,71.5,29.69,SSW,203,3.0,5.0,87,0.00,,---,0.00,376.00,VWS V14.01,2013-09-01 16:00:00,
2013-09-01 11:02:00,76.0,72.2,29.69,SW,220,0.0,3.0,88,0.00,,---,0.00,376.00,VWS V14.01,2013-09-01 16:02:00,
2013-09-01 11:07:00,76.5,71.7,29.69,SSW,201,3.0,5.0,85,0.00,,---,0.00,404.00,VWS V14.01,2013-09-01 16:07:00,
2013-09-01 11:12:00,76.9,71.7,29.69,West,270,2.0,6.0,84,0.00,,---,0.00,234.00,VWS V14.01,2013-09-01 16:12:00,
2013-09-01 11:17:00,76.9,71.7,29.68,SSW,200,2.0,6.0,84,0.00,,---,0.00,309.00,VWS V14.01,2013-09-01 16:17:00,
2013-09-01 11:22:00,78.0,73.1,29.68,SSW,202,5.0,6.0,85,0.00,,---,0.00,770.00,VWS V14.01,2013-09-01 16:22:00,
2013-09-01 11:27:00,78.4,72.4,29.68,WSW,244,1.0,6.0,82,0.00,,---,0.00,589.00,VWS V14.01,2013-09-01 16:27:00,
2013-09-01 11:34:00,78.9,72.2,29.67,SSW,200,2.0,6.0,80,0.00,,---,0.00,294.00,VWS V14.01,2013-09-01 16:34:00,
2013-09-01 11:39:00,78.3,72.4,29.67,SSW,204,4.0,6.0,82,0.00,,---,0.00,918.00,VWS V14.01,2013-09-01 16:39:00,
2013-09-01 11:44:00,79.1,72.0,29.67,SW,228,2.0,6.0,79,0.00,,---,0.00,308.00,VWS V14.01,2013-09-01 16:44:00,
2013-09-01 11:49:00,78.8,72.1,29.67,SSW,207,1.0,6.0,80,0.00,,---,0.00,902.00,VWS V14.01,2013-09-01 16:49:00,
2013-09-01 11:54:00,79.9,72.4,29.67,WSW,246,5.0,6.0,78,0.00,,---,0.00,563.00,VWS V14.01,2013-09-01 16:54:00,
2013-09-01 11:59:00,79.7,72.6,29.67,SSW,192,1.0,1.0,79,0.00,,---,0.00,302.00,VWS V14.01,2013-09-01 16:59:00,
2013-09-01 12:00:00,79.6,72.1,29.67,SSW,192,1.0,6.0,78,0.00,,---,0.00,315.00,VWS V14.01,2013-09-01 17:00:00,
2013-09-01 12:04:00,79.8,71.9,29.67,SW,226,1.0,4.0,77,0.00,,---,0.00,195.00,VWS V14.01,2013-09-01 17:04:00,
2013-09-01 12:09:00,80.0,72.2,29.67,WSW,244,2.0,6.0,77,0.00,,---,0.00,821.00,VWS V14.01,2013-09-01 17:09:00,
2013-09-01 12:14:00,81.1,72.4,29.67,SW,219,5.0,7.0,75,0.00,,---,0.00,784.00,VWS V14.01,2013-09-01 17:14:00,
2013-09-01 12:19:00,82.1,72.6,29.67,SW,234,2.0,7.0,73,0.00,,---,0.00,693.00,VWS V14.01,2013-09-01 17:19:00,
2013-09-01 12:24:00,81.9,72.4,29.66,SW,214,2.0,7.0,73,0.00,,---,0.00,211.00,VWS V14.01,2013-09-01 17:24:00,
2013-09-01 12:29:00,81.5,72.4,29.66,SW,223,1.0,7.0,74,0.00,,---,0.00,902.00,VWS V14.01,2013-09-01 17:29:00,
2013-09-01 12:34:00,82.7,72.3,29.66,SW,214,2.0,7.0,71,0.00,,---,0.00,860.00,VWS V14.01,2013-09-01 17:34:00,
2013-09-01 12:39:00,82.9,72.1,29.66,South,173,3.0,7.0,70,0.00,,---,0.00,879.00,VWS V14.01,2013-09-01 17:39:00,
2013-09-01 12:44:00,83.3,72.5,29.66,WSW,240,1.0,7.0,70,0.00,,---,0.00,953.00,VWS V14.01,2013-09-01 17:44:00,
2013-09-01 12:49:00,84.1,72.4,29.66,WSW,254,3.0,7.0,68,0.00,,---,0.00,232.00,VWS V14.01,2013-09-01 17:49:00,
2013-09-01 12:54:00,83.7,72.5,29.66,SW,225,3.0,7.0,69,0.00,,---,0.00,874.00,VWS V14.01,2013-09-01 17:54:00,
2013-09-01 12:59:00,84.7,72.1,29.66,South,188,1.0,3.0,66,0.00,,---,0.00,863.00,VWS V14.01,2013-09-01 17:59:00,
2013-09-01 13:00:00,84.8,72.6,29.66,WNW,282,1.0,7.0,67,0.00,,---,0.00,853.00,VWS V14.01,2013-09-01 18:00:00,
2013-09-01 13:04:00,85.1,72.0,29.66,SW,232,2.0,3.0,65,0.00,,---,0.00,1053.00,VWS V14.01,2013-09-01 18:04:00,
2013-09-01 13:09:00,84.8,72.2,29.66,SSW,202,4.0,6.0,66,0.00,,---,0.00,1023.00,VWS V14.01,2013-09-01 18:09:00,
2013-09-01 13:14:00,84.0,71.9,29.66,SW,221,1.0,6.0,67,0.00,,---,0.00,91.00,VWS V14.01,2013-09-01 18:14:00,
2013-09-01 13:19:00,83.4,70.9,29.67,NW,311,2.0,9.0,66,0.00,,---,0.00,144.00,VWS V14.01,2013-09-01 18:19:00,
2013-09-01 13:24:00,82.0,70.4,29.67,ESE,121,1.0,9.0,68,0.00,,---,0.00,223.00,VWS V14.01,2013-09-01 18:24:00,
2013-09-01 13:29:00,82.3,71.5,29.66,SW,226,2.0,9.0,70,0.00,,---,0.00,508.00,VWS V14.01,2013-09-01 18:29:00,
2013-09-01 13:35:00,83.5,70.9,29.66,South,188,2.0,9.0,66,0.00,,---,0.00,336.00,VWS V14.01,2013-09-01 18:35:00,
2013-09-01 13:40:00,83.4,70.9,29.66,West,272,1.0,9.0,66,0.00,,---,0.00,211.00,VWS V14.01,2013-09-01 18:40:00,
2013-09-01 13:45:00,82.6,69.7,29.66,NW,315,2.0,9.0,65,0.00,,---,0.00,965.00,VWS V14.01,2013-09-01 18:45:00,
2013-09-01 13:51:00,83.6,69.7,29.66,WNW,300,4.0,9.0,63,0.00,,---,0.00,889.00,VWS V14.01,2013-09-01 18:51:00,
2013-09-01 13:56:00,83.6,69.2,29.67,North,355,1.0,9.0,62,0.00,,---,0.00,179.00,VWS V14.01,2013-09-01 18:56:00,
2013-09-01 14:00:00,83.1,69.2,29.67,WSW,254,3.0,9.0,63,0.00,,---,0.00,179.00,VWS V14.01,2013-09-01 19:00:00,
2013-09-01 14:01:00,82.7,68.8,29.67,NW,309,2.0,6.0,63,0.00,,---,0.00,179.00,VWS V14.01,2013-09-01 19:01:00,
2013-09-01 14:06:00,82.9,68.1,29.67,WNW,299,4.0,6.0,61,0.00,,---,0.00,803.00,VWS V14.01,2013-09-01 19:06:00,
2013-09-01 14:12:00,83.6,68.7,29.67,North,355,2.0,8.0,61,0.00,,---,0.00,810.00,VWS V14.01,2013-09-01 19:12:00,
2013-09-01 14:17:00,84.3,67.9,29.67,SE,144,1.0,8.0,58,0.00,,---,0.00,844.00,VWS V14.01,2013-09-01 19:17:00,
2013-09-01 14:22:00,84.7,68.3,29.67,West,266,2.0,8.0,58,0.00,,---,0.00,779.00,VWS V14.01,2013-09-01 19:22:00,
2013-09-01 14:27:00,84.6,67.7,29.67,NW,321,3.0,8.0,57,0.00,,---,0.00,802.00,VWS V14.01,2013-09-01 19:27:00,
2013-09-01 14:32:00,86.0,68.5,29.67,North,355,2.0,8.0,56,0.00,,---,0.00,828.00,VWS V14.01,2013-09-01 19:32:00,
2013-09-01 14:37:00,86.4,66.2,29.67,West,265,6.0,8.0,51,0.00,,---,0.00,810.00,VWS V14.01,2013-09-01 19:37:00,
2013-09-01 14:42:00,85.3,64.6,29.67,North,360,5.0,8.0,50,0.00,,---,0.00,765.00,VWS V14.01,2013-09-01 19:42:00,
2013-09-01 14:47:00,85.0,63.7,29.67,ENE,70,2.0,8.0,49,0.00,,---,0.00,793.00,VWS V14.01,2013-09-01 19:47:00,
2013-09-01 14:52:00,85.0,64.9,29.67,North,5,2.0,8.0,51,0.00,,---,0.00,749.00,VWS V14.01,2013-09-01 19:52:00,
2013-09-01 14:57:00,86.6,64.0,29.66,WSW,247,1.0,8.0,47,0.00,,---,0.00,738.00,VWS V14.01,2013-09-01 19:57:00,
2013-09-01 15:00:00,86.6,64.6,29.67,West,262,6.0,8.0,48,0.00,,---,0.00,735.00,VWS V14.01,2013-09-01 20:00:00,
2013-09-01 15:03:00,86.4,63.2,29.66,SW,219,2.0,6.0,46,0.00,,---,0.00,729.00,VWS V14.01,2013-09-01 20:03:00,
2013-09-01 15:08:00,86.2,63.6,29.67,NNE,12,3.0,6.0,47,0.00,,---,0.00,724.00,VWS V14.01,2013-09-01 20:08:00,
2013-09-01 15:13:00,85.5,61.8,29.67,North,9,2.0,7.0,45,0.00,,---,0.00,717.00,VWS V14.01,2013-09-01 20:13:00,
2013-09-01 15:18:00,85.2,61.5,29.67,NW,326,3.0,9.0,45,0.00,,---,0.00,705.00,VWS V14.01,2013-09-01 20:18:00,
2013-09-01 15:23:00,85.6,62.5,29.67,NNE,33,3.0,9.0,46,0.00,,---,0.00,694.00,VWS V14.01,2013-09-01 20:23:00,
2013-09-01 15:28:00,86.0,61.6,29.67,NNW,327,2.0,9.0,44,0.00,,---,0.00,705.00,VWS V14.01,2013-09-01 20:28:00,
2013-09-01 15:33:00,85.7,61.9,29.67,North,355,2.0,9.0,45,0.00,,---,0.00,680.00,VWS V14.01,2013-09-01 20:33:00,
2013-09-01 15:38:00,84.9,59.9,29.68,WNW,299,6.0,9.0,43,0.00,,---,0.00,668.00,VWS V14.01,2013-09-01 20:38:00,
2013-09-01 15:43:00,84.7,61.7,29.68,NW,325,4.0,9.0,46,0.00,,---,0.00,650.00,VWS V14.01,2013-09-01 20:43:00,
2013-09-01 15:48:00,86.0,62.8,29.68,NW,322,4.0,9.0,46,0.00,,---,0.00,643.00,VWS V14.01,2013-09-01 20:48:00,
2013-09-01 15:53:00,85.6,61.2,29.68,North,355,3.0,9.0,44,0.00,,---,0.00,671.00,VWS V14.01,2013-09-01 20:53:00,
2013-09-01 15:58:00,83.9,61.5,29.68,NE,34,1.0,9.0,47,0.00,,---,0.00,545.00,VWS V14.01,2013-09-01 20:58:00,
2013-09-01 16:00:00,83.7,61.3,29.68,NNW,347,5.0,9.0,47,0.00,,---,0.00,610.00,VWS V14.01,2013-09-01 21:00:00,
2013-09-01 16:03:00,84.2,62.4,29.68,SW,215,2.0,7.0,48,0.00,,---,0.00,587.00,VWS V14.01,2013-09-01 21:03:00,
2013-09-01 16:08:00,84.1,62.9,29.68,WNW,303,1.0,7.0,49,0.00,,---,0.00,589.00,VWS V14.01,2013-09-01 21:08:00,
2013-09-01 16:13:00,84.0,62.2,29.68,West,271,6.0,9.0,48,0.00,,---,0.00,585.00,VWS V14.01,2013-09-01 21:13:00,
2013-09-01 16:18:00,84.6,62.2,29.68,North,5,3.0,9.0,47,0.00,,---,0.00,594.00,VWS V14.01,2013-09-01 21:18:00,
2013-09-01 16:23:00,84.3,61.9,29.68,NNE,15,5.0,11.0,47,0.00,,---,0.00,561.00,VWS V14.01,2013-09-01 21:23:00,
2013-09-01 16:28:00,84.1,61.7,29.68,NNE,14,3.0,11.0,47,0.00,,---,0.00,540.00,VWS V14.01,2013-09-01 21:28:00,
2013-09-01 16:33:00,83.7,62.0,29.69,NNE,32,1.0,11.0,48,0.00,,---,0.00,529.00,VWS V14.01,2013-09-01 21:33:00,
2013-09-01 16:38:00,83.4,59.8,29.69,NW,315,4.0,11.0,45,0.00,,---,0.00,497.00,VWS V14.01,2013-09-01 21:38:00,
2013-09-01 16:43:00,82.9,60.6,29.69,NW,311,2.0,11.0,47,0.00,,---,0.00,485.00,VWS V14.01,2013-09-01 21:43:00,
2013-09-01 16:48:00,83.3,61.6,29.69,ESE,103,2.0,11.0,48,0.00,,---,0.00,469.00,VWS V14.01,2013-09-01 21:48:00,
2013-09-01 16:53:00,83.3,61.0,29.69,NNE,15,1.0,11.0,47,0.00,,---,0.00,452.00,VWS V14.01,2013-09-01 21:53:00,
2013-09-01 16:58:00,83.4,61.7,29.68,NNW,339,2.0,11.0,48,0.00,,---,0.00,436.00,VWS V14.01,2013-09-01 21:58:00,
2013-09-01 17:00:00,83.3,61.6,29.69,NNE,13,4.0,11.0,48,0.00,,---,0.00,432.00,VWS V14.01,2013-09-01 22:00:00,
2013-09-01 17:03:00,82.7,61.6,29.69,NNW,346,7.0,8.0,49,0.00,,---,0.00,418.00,VWS V14.01,2013-09-01 22:03:00,
2013-09-01 17:08:00,82.0,61.5,29.69,North,355,5.0,9.0,50,0.00,,---,0.00,401.00,VWS V14.01,2013-09-01 22:08:00,
2013-09-01 17:13:00,81.3,61.5,29.69,NNE,22,1.0,9.0,51,0.00,,---,0.00,387.00,VWS V14.01,2013-09-01 22:13:00,
2013-09-01 17:18:00,80.8,61.5,29.69,North,9,3.0,15.0,52,0.00,,---,0.00,371.00,VWS V14.01,2013-09-01 22:18:00,
2013-09-01 17:23:00,80.7,61.5,29.69,North,5,4.0,15.0,52,0.00,,---,0.00,353.00,VWS V14.01,2013-09-01 22:23:00,
2013-09-01 17:28:00,80.2,61.0,29.69,NW,323,2.0,15.0,52,0.00,,---,0.00,338.00,VWS V14.01,2013-09-01 22:28:00,
2013-09-01 17:33:00,79.9,61.3,29.70,NW,324,7.0,15.0,53,0.00,,---,0.00,322.00,VWS V14.01,2013-09-01 22:33:00,
2013-09-01 17:38:00,79.6,60.4,29.70,NNE,19,3.0,15.0,52,0.00,,---,0.00,304.00,VWS V14.01,2013-09-01 22:38:00,
2013-09-01 17:43:00,79.7,60.0,29.70,NNE,14,5.0,15.0,51,0.00,,---,0.00,292.00,VWS V14.01,2013-09-01 22:43:00,
2013-09-01 17:48:00,79.4,60.3,29.70,North,355,3.0,15.0,52,0.00,,---,0.00,274.00,VWS V14.01,2013-09-01 22:48:00,
2013-09-01 17:53:00,79.3,60.7,29.71,NNW,331,5.0,15.0,53,0.00,,---,0.00,258.00,VWS V14.01,2013-09-01 22:53:00,
2013-09-01 17:58:00,79.2,60.1,29.71,NW,321,4.0,15.0,52,0.00,,---,0.00,241.00,VWS V14.01,2013-09-01 22:58:00,
2013-09-01 18:00:00,79.2,60.6,29.71,North,355,3.0,15.0,53,0.00,,---,0.00,237.00,VWS V14.01,2013-09-01 23:00:00,
2013-09-01 18:03:00,79.0,59.9,29.71,NNW,346,2.0,7.0,52,0.00,,---,0.00,221.00,VWS V14.01,2013-09-01 23:03:00,
2013-09-01 18:08:00,79.0,59.9,29.71,NNW,327,2.0,7.0,52,0.00,,---,0.00,181.00,VWS V14.01,2013-09-01 23:08:00,
2013-09-01 18:13:00,78.7,59.6,29.72,NNE,19,0.0,7.0,52,0.00,,---,0.00,40.00,VWS V14.01,2013-09-01 23:13:00,
2013-09-01 18:18:00,78.6,60.1,29.72,NNW,347,5.0,7.0,53,0.00,,---,0.00,32.00,VWS V14.01,2013-09-01 23:18:00,
2013-09-01 18:23:00,78.4,59.9,29.72,North,355,2.0,7.0,53,0.00,,---,0.00,30.00,VWS V14.01,2013-09-01 23:23:00,
2013-09-01 18:28:00,78.0,59.5,29.72,NNE,29,1.0,10.0,53,0.00,,---,0.00,30.00,VWS V14.01,2013-09-01 23:28:00,
2013-09-01 18:33:00,77.7,59.2,29.73,NNE,13,1.0,10.0,53,0.00,,---,0.00,30.00,VWS V14.01,2013-09-01 23:33:00,
2013-09-01 18:38:00,77.5,59.6,29.73,North,5,3.0,10.0,54,0.00,,---,0.00,26.00,VWS V14.01,2013-09-01 23:38:00,
2013-09-01 18:43:00,77.2,59.3,29.73,NNW,340,3.0,10.0,54,0.00,,---,0.00,28.00,VWS V14.01,2013-09-01 23:43:00,
2013-09-01 18:48:00,76.9,59.5,29.73,North,5,2.0,10.0,55,0.00,,---,0.00,23.00,VWS V14.01,2013-09-01 23:48:00,
2013-09-01 18:53:00,76.7,59.3,29.73,NNE,16,1.0,10.0,55,0.00,,---,0.00,23.00,VWS V14.01,2013-09-01 23:53:00,
2013-09-01 18:58:00,76.4,59.6,29.73,WNW,293,3.0,10.0,56,0.00,,---,0.00,19.00,VWS V14.01,2013-09-01 23:58:00,
2013-09-01 19:00:00,76.4,59.6,29.73,North,11,1.0,10.0,56,0.00,,---,0.00,19.00,VWS V14.01,2013-09-02 00:00:00,
2013-09-01 19:03:00,76.1,59.8,29.73,WNW,290,1.0,7.0,57,0.00,,---,0.00,18.00,VWS V14.01,2013-09-02 00:03:00,
2013-09-01 19:08:00,75.8,59.5,29.73,NNW,343,0.0,7.0,57,0.00,,---,0.00,14.00,VWS V14.01,2013-09-02 00:08:00,
2013-09-01 19:13:00,75.4,59.6,29.73,NNW,334,7.0,7.0,58,0.00,,---,0.00,12.00,VWS V14.01,2013-09-02 00:13:00,
2013-09-01 19:18:00,75.1,59.8,29.73,NNW,336,0.0,7.0,59,0.00,,---,0.00,9.00,VWS V14.01,2013-09-02 00:18:00,
2013-09-01 19:23:00,74.8,60.0,29.74,NW,324,2.0,7.0,60,0.00,,---,0.00,7.00,VWS V14.01,2013-09-02 00:23:00,
2013-09-01 19:28:00,74.4,59.6,29.74,NW,309,0.0,7.0,60,0.00,,---,0.00,5.00,VWS V14.01,2013-09-02 00:28:00,
2013-09-01 19:33:00,74.1,59.8,29.74,ENE,59,0.0,7.0,61,0.00,,---,0.00,5.00,VWS V14.01,2013-09-02 00:33:00,
2013-09-01 19:38:00,73.7,59.9,29.74,West,278,1.0,7.0,62,0.00,,---,0.00,0.00,VWS V14.01,2013-09-02 00:38:00,
2013-09-01 19:43:00,73.4,59.6,29.74,NNW,329,0.0,7.0,62,0.00,,---,0.00,0.00,VWS V14.01,2013-09-02 00:43:00,
2013-09-01 19:48:00,73.1,59.8,29.74,NNW,333,2.0,7.0,63,0.00,,---,0.00,0.00,VWS V14.01,2013-09-02 00:48:00,
2013-09-01 19:53:00,72.8,59.9,29.74,West,276,0.0,7.0,64,0.00,,---,0.00,0.00,VWS V14.01,2013-09-02 00:53:00,
2013-09-01 19:58:00,72.2,60.2,29.74,West,277,0.0,7.0,66,0.00,,---,0.00,0.00,VWS V14.01,2013-09-02 00:58:00,
2013-09-01 20:00:00,72.0,60.5,29.74,West,277,0.0,7.0,67,0.00,,---,0.00,0.00,VWS V14.01,2013-09-02 01:00:00,
2013-09-01 20:03:00,71.3,60.2,29.75,WNW,302,0.0,1.0,68,0.00,,---,0.00,0.00,VWS V14.01,2013-09-02 01:03:00,
2013-09-01 20:08:00,70.5,60.3,29.75,West,277,1.0,1.0,70,0.00,,---,0.00,0.00,VWS V14.01,2013-09-02 01:08:00,
2013-09-01 20:13:00,69.5,60.5,29.74,West,277,0.0,2.0,73,0.00,,---,0.00,0.00,VWS V14.01,2013-09-02 01:13:00,
2013-09-01 20:18:00,68.5,60.3,29.75,West,277,0.0,2.0,75,0.00,,---,0.00,0.00,VWS V14.01,2013-09-02 01:18:00,
2013-09-01 20:23:00,68.1,60.3,29.75,West,259,0.0,2.0,76,0.00,,---,0.00,0.00,VWS V14.01,2013-09-02 01:23:00,
2013-09-01 20:28:00,67.6,59.8,29.75,West,259,0.0,2.0,76,0.00,,---,0.00,0.00,VWS V14.01,2013-09-02 01:28:00,
2013-09-01 20:33:00,67.9,60.1,29.75,NNW,337,1.0,2.0,76,0.00,,---,0.00,0.00,VWS V14.01,2013-09-02 01:33:00,
2013-09-01 20:38:00,68.1,59.9,29.75,NNW,334,0.0,3.0,75,0.00,,---,0.00,0.00,VWS V14.01,2013-09-02 01:38:00,
2013-09-01 20:43:00,68.3,60.1,29.75,NW,313,0.0,3.0,75,0.00,,---,0.00,0.00,VWS V14.01,2013-09-02 01:43:00,
2013-09-01 20:48:00,68.7,60.1,29.76,NW,314,1.0,5.0,74,0.00,,---,0.00,0.00,VWS V14.01,2013-09-02 01:48:00,
2013-09-01 20:53:00,68.9,60.3,29.76,North,355,0.0,5.0,74,0.00,,---,0.00,0.00,VWS V14.01,2013-09-02 01:53:00,
2013-09-01 20:58:00,69.0,60.4,29.76,NNW,343,0.0,5.0,74,0.00,,---,0.00,0.00,VWS V14.01,2013-09-02 01:58:00,
2013-09-01 21:00:00,69.0,60.4,29.76,North,355,0.0,5.0,74,0.00,,---,0.00,0.00,VWS V14.01,2013-09-02 02:00:00,
2013-09-01 21:03:00,69.1,60.5,29.76,WNW,284,0.0,3.0,74,0.00,,---,0.00,0.00,VWS V14.01,2013-09-02 02:03:00,
2013-09-01 21:08:00,69.1,60.5,29.76,NW,318,1.0,3.0,74,0.00,,---,0.00,0.00,VWS V14.01,2013-09-02 02:08:00,
2013-09-01 21:13:00,69.0,60.4,29.77,NNW,341,1.0,3.0,74,0.00,,---,0.00,0.00,VWS V14.01,2013-09-02 02:13:00,
2013-09-01 21:18:00,69.0,60.4,29.77,NNW,340,0.0,3.0,74,0.00,,---,0.00,0.00,VWS V14.01,2013-09-02 02:18:00,
2013-09-01 21:23:00,68.8,60.6,29.77,NNW,340,0.0,3.0,75,0.00,,---,0.00,0.00,VWS V14.01,2013-09-02 02:23:00,
2013-09-01 21:28:00,68.7,60.5,29.77,WNW,298,1.0,3.0,75,0.00,,---,0.00,0.00,VWS V14.01,2013-09-02 02:28:00,
2013-09-01 21:33:00,68.4,60.5,29.77,NW,305,0.0,3.0,76,0.00,,---,0.00,0.00,VWS V14.01,2013-09-02 02:33:00,
2013-09-01 21:38:00,68.2,60.3,29.77,NW,306,1.0,3.0,76,0.00,,---,0.00,0.00,VWS V14.01,2013-09-02 02:38:00,
2013-09-01 21:43:00,68.0,60.5,29.77,NW,306,0.0,3.0,77,0.00,,---,0.00,0.00,VWS V14.01,2013-09-02 02:43:00,
2013-09-01 21:48:00,67.7,60.6,29.78,NW,306,0.0,3.0,78,0.00,,---,0.00,0.00,VWS V14.01,2013-09-02 02:48:00,
2013-09-01 21:53:00,67.1,60.4,29.77,NW,306,0.0,3.0,79,0.00,,---,0.00,0.00,VWS V14.01,2013-09-02 02:53:00,
2013-09-01 21:58:00,66.6,60.2,29.77,NW,306,0.0,3.0,80,0.00,,---,0.00,0.00,VWS V14.01,2013-09-02 02:58:00,
2013-09-01 22:00:00,66.5,60.2,29.77,WNW,297,2.0,3.0,80,0.00,,---,0.00,0.00,VWS V14.01,2013-09-02 03:00:00,
2013-09-01 22:03:00,66.3,60.3,29.78,NW,310,0.0,2.0,81,0.00,,---,0.00,0.00,VWS V14.01,2013-09-02 03:03:00,
2013-09-01 22:08:00,66.0,60.0,29.78,West,259,0.0,2.0,81,0.00,,---,0.00,0.00,VWS V14.01,2013-09-02 03:08:00,
2013-09-01 22:13:00,65.7,60.1,29.78,West,259,1.0,2.0,82,0.00,,---,0.00,0.00,VWS V14.01,2013-09-02 03:13:00,
2013-09-01 22:18:00,65.6,60.3,29.78,West,259,0.0,2.0,83,0.00,,---,0.00,0.00,VWS V14.01,2013-09-02 03:18:00,
2013-09-01 22:22:00,65.5,60.2,29.79,WSW,254,0.0,4.0,83,0.00,,---,0.00,0.00,VWS V14.01,2013-09-02 03:22:00,
2013-09-01 22:27:00,65.6,60.3,29.79,NNW,335,0.0,4.0,83,0.00,,---,0.00,0.00,VWS V14.01,2013-09-02 03:27:00,
2013-09-01 22:32:00,65.7,60.4,29.79,NW,317,1.0,4.0,83,0.00,,---,0.00,0.00,VWS V14.01,2013-09-02 03:32:00,
2013-09-01 22:38:00,65.6,60.3,29.79,SW,231,2.0,4.0,83,0.00,,---,0.00,0.00,VWS V14.01,2013-09-02 03:38:00,
2013-09-01 22:43:00,65.6,60.3,29.79,SW,215,0.0,4.0,83,0.00,,---,0.00,0.00,VWS V14.01,2013-09-02 03:43:00,
2013-09-01 22:48:00,65.4,60.5,29.79,SW,217,0.0,4.0,84,0.00,,---,0.00,0.00,VWS V14.01,2013-09-02 03:48:00,
2013-09-01 22:53:00,65.2,60.2,29.79,NW,313,1.0,4.0,84,0.00,,---,0.00,0.00,VWS V14.01,2013-09-02 03:53:00,
2013-09-01 22:58:00,65.2,60.2,29.79,WSW,249,0.0,4.0,84,0.00,,---,0.00,0.00,VWS V14.01,2013-09-02 03:58:00,
2013-09-01 23:00:00,65.2,60.2,29.79,SSW,194,1.0,4.0,84,0.00,,---,0.00,0.00,VWS V14.01,2013-09-02 04:00:00,
2013-09-01 23:01:00,65.3,60.7,29.79,NW,305,0.0,3.0,85,0.00,,---,0.00,0.00,VWS V14.01,2013-09-02 04:01:00,
2013-09-01 23:06:00,65.6,60.6,29.80,NNE,13,0.0,4.0,84,0.00,,---,0.00,0.00,VWS V14.01,2013-09-02 04:06:00,
2013-09-01 23:11:00,65.8,60.5,29.80,NNE,13,0.0,4.0,83,0.00,,---,0.00,0.00,VWS V14.01,2013-09-02 04:11:00,
2013-09-01 23:16:00,65.9,60.6,29.80,NNE,13,0.0,4.0,83,0.00,,---,0.00,0.00,VWS V14.01,2013-09-02 04:16:00,
2013-09-01 23:21:00,65.7,60.4,29.80,NNE,13,0.0,4.0,83,0.00,,---,0.00,0.00,VWS V14.01,2013-09-02 04:21:00,
2013-09-01 23:26:00,65.5,60.2,29.80,West,280,1.0,4.0,83,0.00,,---,0.00,0.00,VWS V14.01,2013-09-02 04:26:00,
2013-09-01 23:31:00,65.2,60.2,29.80,West,263,3.0,4.0,84,0.00,,---,0.00,0.00,VWS V14.01,2013-09-02 04:31:00,
2013-09-01 23:36:00,65.1,60.2,29.80,West,261,1.0,4.0,84,0.00,,---,0.00,0.00,VWS V14.01,2013-09-02 04:36:00,
2013-09-01 23:41:00,64.8,60.2,29.80,West,261,0.0,4.0,85,0.00,,---,0.00,0.00,VWS V14.01,2013-09-02 04:41:00,
2013-09-01 23:46:00,64.6,60.0,29.80,West,261,0.0,4.0,85,0.00,,---,0.00,0.00,VWS V14.01,2013-09-02 04:46:00,
2013-09-01 23:51:00,64.4,59.8,29.80,West,261,0.0,4.0,85,0.00,,---,0.00,0.00,VWS V14.01,2013-09-02 04:51:00,
2013-09-01 23:56:00,64.3,60.0,29.80,West,261,2.0,4.0,86,0.00,,---,0.00,0.00,VWS V14.01,2013-09-02 04:56:00,